Regional Weather Roundup
Issued by NWS

Home | Current Version | Previous Version | Text Only | Print | Product List | Glossary On
Versions: 1 2 3 4 5 6 7 8 9 10 11 12 13 14 15 16 17 18 19 20 21 22 23 24 25 26 27 28 29 30 31 32 33 34 35 36 37 38 39 40 41 42 43 44 45 46 47 48 49 50
000
ASUS43 KOAX 301810
RWRNE

WEATHER ROUNDUP FOR NEBRASKA
NATIONAL WEATHER SERVICE OMAHA NE
100 PM CDT WED JUL 30 2014

NOTES: SATELLITE DATA IS BEING USED TO AUGMENT CLOUD COVER ABOVE
       12000 FEET.
       "FAIR" INDICATES FEW OR NO CLOUDS BELOW 12,000 FEET WITH NO
       SIGNIFICANT WEATHER AND/OR OBSTRUCTIONS TO VISIBILITY.

  * THESE STATIONS DO NOT REPORT WEATHER SUCH AS RAIN...SNOW OR FOG.

NEZ001>004-019>022-054>056-301900-
NEBRASKA PANHANDLE

CITY           SKY/WX    TMP DP  RH WIND       PRES   REMARKS
SCOTTSBLUFF    CLOUDY    74  57  55 VRB5      30.27F
6HR MIN TEMP:  62; 6HR MAX TEMP:  75;

ALLIANCE       PTSUNNY   77  50  38 N9        30.25F
6HR MIN TEMP:  58; 6HR MAX TEMP:  77;

CHADRON        PTSUNNY   77  52  41 NW5       30.22F
6HR MIN TEMP:  53; 6HR MAX TEMP:  78;

KIMBALL        CLOUDY    61  58  91 S9        30.31S
SIDNEY         CLOUDY    71  59  65 VRB3      30.30S
6HR MIN TEMP:  62; 6HR MAX TEMP:  71;

$$

NEZ057>060-069>072-079>082-301900-
SOUTHWEST NEBRASKA

CITY           SKY/WX    TMP DP  RH WIND       PRES   REMARKS
NORTH PLATTE   MOSUNNY   78  51  38 E7        30.20F
6HR MIN TEMP:  60; 6HR MAX TEMP:  79;

IMPERIAL       CLOUDY    73  59  61 SE3       30.25F
6HR MIN TEMP:  63; 6HR MAX TEMP:  73;

LEXINGTON      MOSUNNY   78  57  49 SE7       30.19F
MCCOOK         CLOUDY    73  59  61 SE6       30.22F
6HR MIN TEMP:  63; 6HR MAX TEMP:  74;

OGALLALA       PTSUNNY   74  53  48 CALM      30.23F
$$

NEZ005>010-023>029-035>040-094-301900-
NORTH CENTRAL NEBRASKA

CITY           SKY/WX    TMP DP  RH WIND       PRES   REMARKS
VALENTINE      PTSUNNY   80  49  33 NE7       30.19F
6HR MIN TEMP:  49; 6HR MAX TEMP:  81;

AINSWORTH      MOSUNNY   77  51  40 SE3       30.19F
BROKEN BOW     PTSUNNY   78  56  46 N6        30.19F
6HR MIN TEMP:  55; 6HR MAX TEMP:  81;

O`NEILL        MOSUNNY   79  51  38 N7        30.18S
ORD            MOSUNNY   77  54  44 N5        30.17F
6HR MIN TEMP:  53; 6HR MAX TEMP:  79;

THEDFORD       MOSUNNY   78  51  37 E3        30.22F
$$

NEZ041-046>049-061>064-073>077-083>087-301900-
SOUTH CENTRAL NEBRASKA

CITY           SKY/WX    TMP DP  RH WIND       PRES   REMARKS
GRAND ISLAND   FAIR      75  55  49 E9        30.18F
6HR MIN TEMP:  57; 6HR MAX TEMP:  78;

AURORA         FAIR      76  55  47 NE3       30.18F
HASTINGS       PTSUNNY   75  52  44 VRB5      30.19F
6HR MIN TEMP:  60; 6HR MAX TEMP:  77;

HEBRON         FAIR      78  50  37 NE8G16    30.16F
HOLDREGE       FAIR      75  56  51 NE6       30.20F
KEARNEY *      FAIR      77  55  47 NW5       30.19F
YORK           FAIR      75  54  46 NE7       30.18F
$$

NEZ011>018-030>034-042>045-301900-
NORTHEAST NEBRASKA

CITY           SKY/WX    TMP DP  RH WIND       PRES   REMARKS
NORFOLK        FAIR      78  53  41 VRB7      30.16F
6HR MIN TEMP:  54; 6HR MAX TEMP:  78;

ALBION         PTSUNNY   74  55  50 CALM      30.18S
BLAIR          PTSUNNY   75  52  44 NW8       30.15F
COLUMBUS *     FAIR      77  54  44 N7        30.17F
FREMONT        FAIR      79  53  40 NW5       30.16F
TEKAMAH        FAIR      81  51  35 NW8       30.15F
6HR MIN TEMP:  53; 6HR MAX TEMP:  81;

WAYNE          PTSUNNY   75  57  52 NW5       30.16F
$$

NEZ050>053-065>068-078-088>093-301900-
SOUTHEAST NEBRASKA

CITY           SKY/WX    TMP DP  RH WIND       PRES   REMARKS
LINCOLN          N/A     81  51  35 VRB6      30.16F
6HR MIN TEMP:  58; 6HR MAX TEMP:  81;

OMAHA EPPLEY   FAIR      80  54  40 N9        30.14F
6HR MIN TEMP:  56; 6HR MAX TEMP:  80;

BEATRICE       PTSUNNY   76  53  44 NE8       30.15F
FALLS CITY     FAIR      79  53  40 NE6       30.13F
6HR MIN TEMP:  60; 6HR MAX TEMP:  80;

NEBRASKA CITY  PTSUNNY   78  52  40 NE8       30.15F
PLATTSMOUTH    FAIR      76  51  41 N5        30.15F
$$

NEZ044-045-051>053-067-301900-
OMAHA AREA

CITY           SKY/WX    TMP DP  RH WIND       PRES   REMARKS
OMAHA EPPLEY   FAIR      80  54  40 N9        30.14F
6HR MIN TEMP:  56; 6HR MAX TEMP:  80;

BLAIR          PTSUNNY   75  52  44 NW8       30.15F
FREMONT        FAIR      79  53  40 NW5       30.16F
MILLARD        FAIR      78  52  40 W3        30.14F
OFFUTT AFB     FAIR      80  55  43 NE5       30.14F
PLATTSMOUTH    FAIR      76  51  41 N5        30.15F
WAHOO          MOCLDY    78  52  40 N5        30.15F
$$


USA.gov is the U.S. government's official web portal to all federal, state and local government web resources and services.